Wind_Speed
16 16 16 16 15 15 14 13 11 11 10 10 10 9 10 10 9 9 8 7 5 5 4 4 4 4 4 4 4 5 5 4 4 4 5 5 5 5 5 6 6 7
16 16 15 16 16 16 15 14 13 12 12 11 11 10 10 10 9 9 9 8 7 6 5 5 5 5 5 5 5 5 5 5 5 6 6 6 5 5 5 6 7 6
16 16 16 16 17 16 16 15 14 14 14 13 12 11 11 10 10 9 9 9 8 7 7 6 6 6 6 6 6 6 6 6 6 6 7 6 6 6 6 7 7 7
17 17 17 18 17 17 17 16 16 16 15 15 14 12 12 11 10 10 10 9 9 8 8 7 7 7 7 7 7 7 7 7 7 7 7 7 7 7 7 7 7 7
19 18 18 18 18 18 18 18 17 17 17 16 15 14 13 12 12 11 11 10 10 9 9 8 8 8 7 7 7 8 8 8 8 8 8 8 8 7 7 7 7 7
20 20 19 19 19 19 20 20 19 18 18 17 16 15 14 13 13 12 12 11 11 10 9 9 9 8 8 8 8 8 8 9 9 9 9 9 9 8 8 7 7 8
21 21 20 20 20 20 20 20 20 19 19 18 17 16 16 15 14 13 13 12 12 11 10 10 10 9 9 9 9 9 9 9 10 10 10 10 10 10 9 9 8 9
22 21 21 21 20 21 21 21 21 21 20 19 19 18 16 16 15 14 14 13 12 12 11 11 10 10 10 10 9 10 10 10 11 11 11 11 11 11 11 10 10 10
23 22 21 21 21 21 21 21 22 21 21 21 20 19 17 17 16 15 14 14 13 13 12 12 11 11 11 10 10 10 10 11 11 12 12 12 12 12 12 11 11 10
25 23 22 21 21 22 22 22 22 22 22 22 22 20 19 18 17 16 16 15 14 14 13 12 11 11 11 11 11 11 11 11 12 13 13 13 13 13 12 12 11 10
27 26 24 23 22 22 22 23 23 22 23 23 23 22 21 20 19 18 17 17 16 15 13 12 11 11 11 11 11 11 11 12 13 13 14 14 14 14 13 13 12 11
28 27 27 26 25 24 24 23 22 23 23 23 23 23 22 21 20 20 19 19 18 16 14 13 12 12 11 11 11 11 12 13 13 14 14 14 15 15 14 14 13 12
28 28 28 28 27 27 26 24 23 23 23 24 24 24 23 23 22 21 21 20 19 18 16 15 14 13 13 12 12 12 12 13 13 14 15 15 15 15 16 16 15 14
29 28 29 29 29 29 27 26 25 24 24 24 24 24 24 23 23 23 23 22 20 19 18 16 15 15 15 14 13 13 13 13 13 14 15 16 16 16 16 17 17 16
29 28 29 29 29 29 28 28 27 26 26 25 24 24 24 25 24 24 24 23 22 21 19 18 17 17 17 16 16 15 15 14 14 14 15 16 16 16 17 17 18 18
29 28 28 28 29 29 29 29 29 28 28 26 25 25 25 25 25 25 24 23 23 22 21 20 19 18 19 19 18 17 17 16 15 15 15 15 16 16 17 17 18 18
27 27 27 28 28 29 29 29 29 29 29 28 27 26 26 26 26 25 25 24 24 23 22 21 20 20 20 21 20 20 19 18 17 17 16 16 16 16 16 17 17 17
27 26 26 26 28 28 29 29 29 29 29 29 28 28 27 27 27 26 26 25 25 24 23 22 21 21 22 23 22 22 21 20 19 18 18 17 16 16 16 17 17 17
29 27 25 25 26 27 28 29 30 30 29 29 30 30 30 29 28 28 27 27 26 25 24 24 23 23 23 24 24 24 23 22 21 20 19 18 17 17 17 17 17 17
32 30 28 26 26 26 27 28 29 30 30 31 31 32 31 31 30 30 30 29 28 27 26 26 25 24 24 25 26 26 25 24 23 21 20 19 18 17 17 17 17 17
34 32 30 29 28 28 28 28 29 29 31 32 33 34 33 32 32 32 32 31 31 30 29 28 28 27 26 26 27 28 27 26 25 23 21 20 19 19 18 18 18 18
36 35 33 31 31 31 31 32 32 32 32 33 35 36 34 34 33 34 34 33 33 33 32 31 31 31 29 29 30 31 30 29 27 24 22 21 21 20 20 19 19 18
38 37 36 35 34 34 35 35 34 33 33 34 35 35 35 34 35 36 36 35 34 35 34 33 33 34 33 32 33 34 34 32 29 27 25 23 23 23 22 21 20 20
38 39 39 39 38 38 38 37 35 34 34 34 34 34 33 32 32 34 35 35 35 36 35 35 35 35 35 35 35 36 36 34 32 30 28 25 24 24 24 24 23 22
39 39 41 42 42 42 41 38 36 36 36 36 36 34 32 31 31 32 33 33 34 35 35 35 36 37 36 35 35 35 36 36 35 32 29 27 25 25 25 25 25 24
41 40 41 42 43 45 44 42 40 40 39 38 37 35 32 31 32 32 32 33 34 35 35 35 36 38 37 36 36 36 36 36 36 34 30 27 26 26 26 26 26 26
Wind_Direction
207 205 205 204 203 200 194 191 189 186 187 186 187 190 190 191 191 192 196 199 204 207 212 217 205 191 191 195 203 207 207 206 200 196 196 197 203 209 212 216 207 194
209 205 204 204 206 205 200 196 194 194 194 193 194 196 197 199 198 197 199 201 207 213 219 229 230 219 208 204 207 212 212 211 210 209 210 207 208 213 217 221 218 211
211 206 203 204 205 206 206 203 200 200 201 200 200 201 203 206 204 204 206 207 208 213 219 227 233 232 226 217 211 212 215 213 214 216 218 216 216 219 221 220 219 221
215 210 206 204 204 204 208 209 207 205 204 205 206 204 205 209 209 209 211 213 215 215 219 225 229 233 233 231 223 216 215 215 217 221 222 222 223 225 226 225 224 225
219 216 212 209 206 204 207 210 210 210 208 208 210 208 208 211 213 214 213 215 217 217 218 221 224 229 231 234 232 227 221 218 218 221 223 225 227 228 230 229 230 232
222 221 218 215 212 208 208 210 211 214 214 213 213 211 211 213 215 217 216 215 215 217 219 219 220 224 226 231 234 234 231 227 225 223 222 224 228 232 233 231 233 235
226 224 222 220 218 215 213 212 212 215 217 218 218 215 213 215 217 217 218 217 216 215 218 221 223 223 224 227 230 232 234 232 231 230 226 225 228 231 233 234 236 237
229 229 227 225 223 221 218 216 214 216 218 220 222 220 216 217 219 219 218 218 218 217 218 222 226 228 227 227 228 230 232 233 232 232 231 230 230 231 232 233 236 238
231 231 231 229 228 226 224 221 218 217 219 221 223 222 220 220 221 221 219 219 219 219 220 223 227 231 232 232 232 233 233 234 233 233 232 232 232 231 232 233 235 237
231 233 234 234 233 232 230 227 224 220 219 222 224 222 221 221 222 222 221 221 222 222 224 226 230 234 237 238 238 238 237 237 236 234 232 232 232 231 231 233 235 236
229 231 234 236 236 236 236 234 231 227 223 223 224 224 222 221 221 222 223 223 225 227 229 231 234 238 241 244 245 244 243 242 241 239 235 233 232 231 230 232 234 235
228 229 231 234 235 236 238 238 237 235 231 228 226 225 225 223 221 221 224 226 227 230 232 235 239 241 244 247 249 250 249 246 245 243 240 237 235 233 231 231 233 235
230 231 231 232 233 234 236 238 239 239 238 236 232 229 228 227 224 223 225 228 230 232 234 236 240 244 248 249 251 252 252 250 247 246 244 241 238 238 236 234 234 235
230 231 233 234 235 235 235 237 238 239 241 241 239 236 234 232 229 227 227 230 232 234 236 239 241 245 249 252 253 253 253 252 249 247 246 244 242 241 241 239 238 237
231 232 234 237 238 238 238 238 238 239 241 243 242 241 240 238 235 232 232 233 235 237 238 240 242 246 250 252 254 254 255 255 254 250 248 246 244 243 243 243 242 241
231 233 234 237 240 242 242 241 240 240 241 242 243 242 242 243 241 239 238 237 239 240 241 243 245 247 250 252 254 255 256 257 257 256 253 250 247 246 245 245 245 245
230 232 235 237 239 241 244 245 244 244 244 244 244 244 244 245 244 244 243 242 243 243 245 246 248 250 252 254 255 256 257 258 258 259 258 256 254 252 250 249 250 250
229 231 234 237 239 240 242 244 244 244 244 245 245 246 245 245 246 246 246 246 245 246 247 248 249 251 253 255 257 257 257 258 258 259 260 260 259 258 257 256 255 255
230 231 233 236 240 242 242 243 244 243 243 244 244 244 244 244 245 246 247 248 248 247 248 248 248 249 251 254 256 257 257 257 257 258 258 260 261 262 262 262 261 260
232 229 231 234 237 240 242 243 243 244 243 243 242 242 242 242 243 244 244 246 247 247 247 246 246 245 247 250 253 255 256 256 256 257 258 259 261 261 262 263 263 263
239 234 232 234 234 236 239 241 241 241 242 241 241 241 240 240 239 240 241 242 243 244 244 245 245 244 243 245 249 251 252 252 253 255 257 258 259 259 260 261 261 261
244 243 239 237 236 236 237 237 236 237 237 238 237 237 238 239 239 239 238 239 240 242 242 242 243 244 243 243 246 249 250 250 251 252 253 255 258 259 258 258 258 259
242 245 244 242 240 240 240 241 241 242 243 243 241 238 236 236 238 238 237 236 237 238 239 240 241 243 243 243 245 248 250 250 250 250 250 251 254 256 258 258 258 258
240 241 241 242 242 241 242 244 246 250 252 253 254 254 250 246 245 246 246 244 241 238 237 238 239 240 242 242 244 247 250 251 251 250 250 250 250 252 255 256 256 256
241 240 239 241 243 245 245 245 245 246 247 249 253 256 257 256 255 255 256 256 255 250 245 242 240 239 239 240 242 245 248 250 250 250 249 249 248 248 249 251 252 252
243 242 241 241 244 247 249 248 246 244 243 244 246 249 251 251 252 253 256 259 260 258 255 253 250 247 243 241 240 241 244 246 247 247 246 246 245 245 244 245 246 248
Height
5942 5943 5944 5946 5947 5948 5949 5950 5951 5953 5954 5955 5955 5956 5957 5958 5958 5959 5960 5961 5962 5963 5964 5965 5966 5966 5967 5967 5968 5969 5969 5970 5970 5971 5971 5971 5972 5972 5973 5974 5974 5975
5942 5943 5944 5945 5946 5948 5949 5950 5951 5952 5954 5954 5955 5956 5957 5958 5958 5959 5959 5960 5961 5962 5964 5965 5966 5966 5967 5968 5968 5969 5969 5970 5970 5971 5971 5971 5972 5972 5973 5974 5974 5975
5941 5942 5943 5945 5946 5947 5948 5949 5951 5952 5953 5954 5955 5956 5957 5958 5958 5959 5959 5960 5961 5962 5963 5964 5965 5966 5967 5968 5968 5969 5969 5970 5971 5971 5971 5972 5972 5972 5973 5973 5974 5975
5940 5941 5942 5943 5945 5946 5948 5949 5950 5951 5952 5954 5954 5955 5957 5957 5958 5959 5959 5960 5960 5961 5962 5963 5964 5965 5966 5967 5968 5969 5969 5970 5970 5971 5971 5972 5972 5972 5973 5973 5974 5974
5939 5940 5941 5942 5944 5945 5947 5948 5949 5950 5952 5953 5954 5955 5956 5957 5958 5958 5959 5960 5960 5961 5962 5962 5963 5964 5965 5966 5967 5968 5969 5970 5970 5971 5971 5972 5972 5972 5973 5973 5974 5974
5938 5939 5940 5941 5943 5944 5945 5947 5948 5950 5951 5952 5953 5954 5955 5956 5957 5958 5959 5959 5960 5961 5961 5962 5963 5963 5964 5965 5966 5967 5968 5969 5970 5970 5971 5971 5972 5972 5973 5973 5973 5974
5936 5938 5939 5940 5942 5943 5944 5946 5947 5948 5950 5951 5952 5953 5954 5955 5956 5957 5958 5959 5959 5960 5961 5961 5962 5963 5963 5964 5965 5966 5967 5968 5969 5970 5970 5971 5971 5972 5972 5973 5973 5973
5935 5937 5938 5940 5941 5942 5943 5944 5946 5947 5948 5950 5951 5952 5953 5955 5955 5956 5957 5958 5959 5959 5960 5961 5961 5962 5962 5963 5964 5965 5966 5967 5968 5969 5969 5970 5970 5971 5972 5972 5973 5973
5933 5935 5937 5939 5940 5941 5942 5943 5944 5945 5947 5948 5949 5950 5952 5953 5954 5955 5956 5957 5958 5959 5959 5960 5961 5961 5962 5962 5963 5964 5965 5966 5967 5968 5968 5969 5970 5970 5971 5971 5972 5973
5932 5934 5936 5938 5939 5940 5941 5942 5943 5944 5945 5946 5948 5949 5950 5952 5953 5954 5955 5956 5957 5958 5959 5959 5960 5961 5961 5962 5962 5963 5964 5965 5966 5967 5967 5968 5969 5969 5970 5971 5971 5972
5930 5932 5934 5936 5937 5939 5940 5941 5942 5943 5944 5945 5946 5947 5949 5950 5952 5953 5954 5955 5956 5957 5958 5959 5960 5960 5961 5962 5962 5963 5963 5964 5965 5966 5966 5967 5968 5968 5969 5970 5970 5971
5928 5930 5932 5933 5935 5937 5938 5939 5941 5942 5943 5944 5945 5946 5947 5949 5950 5952 5953 5954 5955 5956 5957 5958 5959 5960 5960 5961 5961 5962 5963 5963 5964 5965 5965 5966 5967 5968 5968 5969 5969 5970
5926 5928 5929 5930 5932 5934 5936 5938 5939 5940 5941 5942 5943 5945 5946 5947 5949 5950 5951 5953 5954 5955 5956 5957 5958 5959 5959 5960 5961 5961 5962 5962 5963 5963 5964 5965 5966 5967 5967 5968 5968 5969
5924 5925 5926 5928 5930 5932 5934 5936 5937 5938 5940 5941 5943 5944 5945 5946 5948 5949 5950 5951 5953 5954 5955 5956 5957 5957 5958 5959 5959 5960 5960 5961 5962 5962 5963 5964 5965 5966 5966 5967 5967 5968
5920 5922 5924 5926 5928 5930 5932 5934 5935 5937 5938 5939 5941 5943 5944 5945 5946 5948 5949 5950 5951 5953 5954 5955 5955 5956 5957 5957 5958 5958 5959 5960 5960 5961 5962 5963 5963 5964 5965 5965 5966 5967
5917 5919 5922 5924 5926 5928 5930 5932 5934 5935 5936 5938 5939 5941 5942 5943 5945 5946 5948 5949 5950 5951 5952 5953 5954 5955 5955 5955 5956 5957 5957 5958 5959 5960 5960 5961 5962 5963 5963 5964 5964 5965
5913 5916 5919 5921 5923 5925 5927 5929 5931 5933 5935 5936 5938 5939 5940 5942 5943 5945 5946 5947 5948 5950 5951 5952 5953 5953 5954 5954 5954 5955 5956 5957 5957 5958 5959 5960 5960 5961 5962 5962 5963 5963
5910 5912 5915 5917 5920 5922 5924 5926 5928 5930 5932 5934 5936 5937 5938 5939 5941 5942 5944 5945 5946 5948 5949 5950 5951 5952 5952 5952 5952 5953 5954 5954 5955 5956 5957 5958 5959 5960 5960 5961 5961 5962
5907 5908 5910 5913 5916 5918 5920 5922 5924 5926 5928 5930 5932 5933 5935 5936 5938 5940 5941 5942 5944 5946 5947 5948 5949 5950 5950 5950 5950 5950 5951 5952 5953 5954 5955 5956 5957 5958 5958 5959 5959 5960
5906 5906 5906 5908 5911 5914 5916 5918 5920 5922 5924 5926 5927 5928 5930 5932 5935 5936 5938 5939 5941 5942 5944 5945 5946 5947 5948 5948 5948 5948 5948 5949 5950 5951 5952 5954 5955 5955 5956 5957 5957 5958
5904 5904 5904 5905 5906 5908 5911 5913 5915 5917 5918 5920 5922 5923 5925 5927 5929 5931 5933 5935 5937 5938 5940 5941 5942 5943 5944 5945 5945 5945 5945 5946 5947 5949 5950 5951 5952 5953 5953 5954 5954 5955
5902 5903 5903 5902 5902 5903 5904 5906 5907 5909 5911 5913 5914 5916 5919 5922 5924 5926 5928 5930 5932 5934 5935 5937 5938 5939 5940 5942 5941 5941 5941 5942 5944 5946 5947 5948 5949 5949 5950 5951 5951 5952
5897 5899 5900 5899 5898 5899 5899 5901 5904 5906 5908 5910 5912 5913 5916 5919 5920 5920 5921 5923 5925 5927 5930 5932 5934 5934 5936 5937 5937 5937 5937 5939 5940 5942 5944 5945 5946 5946 5946 5947 5948 5949
5891 5894 5895 5894 5893 5893 5894 5898 5902 5906 5908 5910 5912 5914 5917 5919 5920 5919 5920 5921 5922 5923 5925 5927 5928 5929 5930 5932 5933 5933 5933 5934 5936 5937 5939 5941 5942 5942 5943 5944 5944 5945
5886 5888 5889 5889 5887 5886 5889 5894 5899 5901 5903 5905 5908 5911 5916 5918 5919 5920 5921 5922 5922 5922 5923 5924 5924 5924 5925 5926 5928 5928 5929 5930 5931 5932 5935 5937 5937 5938 5939 5939 5940 5941
5880 5883 5884 5884 5883 5882 5886 5891 5894 5894 5896 5899 5902 5906 5910 5913 5914 5915 5917 5919 5920 5921 5922 5923 5923 5922 5922 5923 5923 5923 5924 5924 5925 5928 5930 5932 5932 5933 5934 5935 5935 5936